Overview Statistics Trail Chart Weather Telemetry Raw packets
 

This is the latest recevied weather packets stored in our database for station/object WC4PEM-4. If no packets are shown the sender has not sent any weather packets the latest 10 day(s).

<< 122 123 124 125 126 127 128 >>
Time Temp. Humidity Pressure Rain* Wind** Luminosity Snow
1787949388 26.11° C 88% 1016.7 hPa 10.41 mm - - -
1787949088 26.67° C 88% 1016.7 hPa 9.65 mm - - -
1787948788 26.67° C 87% 1016.6 hPa 8.13 mm - - -
1787948639 27.22° C 86% 1016.5 hPa 6.86 mm - - -
1787948488 27.22° C 86% 1016.5 hPa 6.86 mm - - -
1787948280 27.78° C 83% 1016.4 hPa 4.57 mm - - -
1787948188 27.78° C 83% 1016.4 hPa 4.57 mm - - -
1787948010 28.33° C 80% 1016.6 hPa 1.27 mm - - -
1787947888 28.33° C 80% 1016.6 hPa 1.27 mm - - -
1787947647 28.89° C 75% 1016.4 hPa 0 mm - - -
1787947588 28.89° C 75% 1016.4 hPa 0 mm - - -
1787947382 28.89° C 74% 1016.1 hPa 0 mm - - -
1787947288 28.89° C 74% 1016.1 hPa 0 mm - - -
1787947159 29.44° C 74% 1016.1 hPa 0 mm - - -
1787946988 29.44° C 74% 1016.1 hPa 0 mm - - -
1787946780 29.44° C 72% 1016.1 hPa 0 mm - - -
1787946688 29.44° C 72% 1016.1 hPa 0 mm - - -
1787946388 30° C 70% 1016.2 hPa 0 mm - - -
1787946088 30.56° C 68% 1016.2 hPa 0 mm - - -
1787945788 31.67° C 66% 1016.3 hPa 0 mm - - -
1787945488 32.22° C 63% 1016.3 hPa 0 mm - - -
1787945188 32.78° C 60% 1016.1 hPa 0 mm - - -
1787944888 33.33° C 55% 1016.1 hPa 0 mm - - -
1787944588 33.89° C 53% 1015.8 hPa 0 mm - - -
1787944288 33.89° C 51% 1015.8 hPa 0 mm - - -

* Rain latest hour (hover to see other rain measurements)
** Current wind speed in m/s (hover to see current wind gust speed)